Lexington Weather

Lexington, Massachusetts, USA

59°F
10/23/2020 6:03pm 
  • Lexington Conditions: Overcast
  • Temperature: 58.8°F / 14.9°CColder 2.4°F than last hour.
  • Dew Point: 53.4°FDecreased 1.5°Fsince last hour.
  • Relative Humidity: 82%Increased 2.0% since last hour.
  • Wind: Wind from NE NE 1 mph, 10-min avg: 1 mph, gust: 6 mph
  • Barometer: 30.08 in Steady
  • Visibility: 10 miles
  • Rain Today: 0.00 in
  •   

Regional Weather Roundup
for Boston / Norton, MA

        
000
ASUS41 KBOX 170204
RWRBOX

REGIONAL WEATHER ROUNDUP
NATIONAL WEATHER SERVICE BOSTON/NORTON MA
1000 PM EDT FRI OCT 16 2020

NOTE:  "FAIR" INDICATES FEW OR NO CLOUDS BELOW 12,000 FEET WITH NO 
SIGNIFICANT WEATHER AND/OR OBSTRUCTIONS TO VISIBILITY.

MAZALL-170300-
EASTERN MASSACHUSETTS
  
CITY           SKY/WX    TMP DP  RH WIND       PRES   REMARKS
BOSTON         CLOUDY    53  50  89 N8        30.09F                  
BEVERLY        CLOUDY    54  51  90 NW7       30.08S                  
LAWRENCE       CLOUDY    53  50  89 NW5       30.11S                  
BEDFORD        CLOUDY    52  50  93 NW5       30.09S                  
BLUE HILL        N/A     50  50 100 N10       30.06F                  
NORWOOD        LGT RAIN  54  50  86 N6        30.08S                  
MARSHFIELD     CLOUDY    57  54  88 CALM      30.07F                  
PLYMOUTH       CLOUDY    55  51  86 NE9       30.06F                  
TAUNTON        LGT RAIN  55  52  89 CALM      30.08S                  
NEW BEDFORD    CLOUDY    56  52  86 NE8       30.06S                  
$$

MAZALL-170300-
CAPE COD AND THE ISLANDS
  
CITY           SKY/WX    TMP DP  RH WIND       PRES   REMARKS
FALMOUTH       CLOUDY    55  52  88 NE14      30.06F                  
HYANNIS        CLOUDY    57  54  89 N12       30.05F                  
CHATHAM        CLOUDY    59  54  83 N7        30.08F                  
PROVINCETOWN   CLOUDY    57  54  89 NE8       30.08F                  
NANTUCKET      CLOUDY   N/A N/A N/A W3        30.05F                  
MARTHAS VNYRD  CLOUDY    58  54  86 NE15      30.05F                  
$$
 
MAZALL-170300-
CENTRAL AND WESTERN MASSACHUSETTS
  
CITY           SKY/WX    TMP DP  RH WIND       PRES   REMARKS
WORCESTER      LGT RAIN  49  46  90 NW8       30.11R                  
FITCHBURG      LGT RAIN  51  49  92 NW7       30.11S                  
ORANGE         LGT RAIN  49  48  97 N3        30.14R                  
SPRINGFIELD    LGT RAIN  50  49  97 N8        30.12R                  
WESTFIELD      LGT RAIN  50  49  96 N6        30.13R                  
NORTH ADAMS    LGT RAIN  47  43  86 CALM      30.16R                  
PITTSFIELD     LGT RAIN  45  41  86 CALM      30.13S                  
$$
 
RIZALL-170300-
RHODE ISLAND
  
CITY           SKY/WX    TMP DP  RH WIND       PRES   REMARKS
PROVIDENCE     LGT RAIN  54  51  90 N8        30.08S                  
NEWPORT        LGT RAIN  53  51  93 N10       30.06F                  
BLOCK ISLAND   CLOUDY    55  50  83 NE15G22   30.06S                  
SMITHFIELD     LGT RAIN  51  51 100 N9          N/A                   
WESTERLY       RAIN      53  49  86 N8        30.07R FOG              
$$
 
CTZALL-170300-
CONNECTICUT
  
CITY           SKY/WX    TMP DP  RH WIND       PRES   REMARKS
BRADLEY INTL   LGT RAIN  50  48  93 N7        30.13R                  
HARTFORD       LGT RAIN  52  49  89 N8        30.11S                  
BRIDGEPORT     LGT RAIN  51  48  89 NW8       30.11R                  
DANBURY        LGT RAIN  47  44  90 N8        30.13F                  
GROTON         RAIN      52  51  97 NW9       30.09R FOG              
NEW HAVEN      CLOUDY    53  50  89 N12       30.11R                  
CHESTER        NOT AVBL                                               
MERIDEN        LGT RAIN  50  47  89 NW8       30.12R                  
WILLIMANTIC    LGT RAIN  51  49  92 N5        30.10S                  
OXFORD         LGT RAIN  47  46  97 NW10      30.13R                  
$$

MEZ002-015-021-024-NHZ003-005-008-011-012-014-VTZ005-008-170300-
NORTHERN NEW ENGLAND
  
CITY           SKY/WX    TMP DP  RH WIND       PRES   REMARKS
PORTLAND ME    CLOUDY    54  53  97 NE6       30.09S                  
BANGOR ME      LGT RAIN  54  53  97 NW7       30.13R                  
CONCORD NH     LGT RAIN  49  47  93 NW9       30.11S                  
MANCHESTER NH  LGT RAIN  52  48  86 NW7       30.10R                  
NASHUA NH      LGT RAIN  51  51 100 NW7       30.11S                  
PORTSMOUTH NH  CLOUDY    53  51  95 NW3       30.08R                  
JAFFREY NH     LGT RAIN  48  44  86 N6        30.12R                  
KEENE NH       LGT RAIN  48  47  96 N3        30.15R                  
BURLINGTON VT  CLOUDY    47  44  90 E5        30.19R                  
MT. WASHINGTON SNOW      34  34 100 W22         N/A  VSB 1/16WCI  22  
$$

NYZ052-076-170300-
EASTERN NEW YORK
  
CITY           SKY/WX    TMP DP  RH WIND       PRES   REMARKS
ALBANY         CLOUDY    45  44  97 CALM      30.19R                  
NEW YORK CITY  LGT RAIN  53  47  79 N10       30.13R                  
$$
 
ANZALL-170300-
MARINE OBSERVATIONS
  
STATION/POSITION TIME  TEMP    WIND        PRES    VSBY  WAVE
                       AIR SEA DIR/SP/G                  HT/PER
                 (UTC) (F)     (DEG/KT/KT) (MB)    (MI)  (FT/S)
BOSTON BUOY      0150   55 57  350/ 10/ 12 1017.6F         2/ 9
BUZZARDS BAY     0100           20/ 20/ 21 1018.5F
NANTUCKET SOUND  0150      62   20/ 17/ 21   N/A           2/ 4
MASS BAY-STELLWA 0104   55 58  350/ 10/ 12 1018.0F  1 7/8  3/ 8
ISLE OF SHOALS   0100   54     310/ 10/ 11 1018.7R
S OF BLOCK IS    0126      64                N/A           4/ 5
$$

......................KEY.........................
  SKY/WX - SKY CONDITION/PRESENT WEATHER
  TMP    - TEMPERATURE IN FAHRENHEIT
  DWPT   - DEWPOINT IN FAHRENHEIT
  RH     - RELATIVE HUMIDITY IN PERCENT
  WIND   - DIRECTION AND SPEED IN MPH
  PRES   - MEAN SEA LEVEL PRESSURE IN INCHES OF HG
  WCI    - WIND CHILL INDEX
  VSB    - VISIBILITY IN MILES
  HX     - HEAT INDEX
  TC     - TEMPERATURE IN CELSIUS
  VRB    - VARIABLE WIND DIRECTION
  N/A    - NOT AVAILABLE
  
      

Other recent Regional Weather Roundups

Fri Oct 23, 5:05pm

Fri Oct 23, 4:04pm

Fri Oct 23, 3:04pm

Fri Oct 23, 2:05pm

Fri Oct 23, 1:04pm

Fri Oct 23, 12:04pm

Fri Oct 23, 11:04am

Fri Oct 23, 10:04am

Fri Oct 23, 9:04am

Fri Oct 23, 8:04am

Fri Oct 23, 7:04am

Fri Oct 23, 6:04am

Fri Oct 23, 5:04am

Fri Oct 23, 4:04am

Fri Oct 23, 3:04am

Fri Oct 23, 2:04am

Fri Oct 23, 1:04am

Fri Oct 23, 12:04am

Thu Oct 22, 11:04pm

Thu Oct 22, 10:04pm

Thu Oct 22, 9:05pm

Thu Oct 22, 8:04pm

Thu Oct 22, 7:05pm

Thu Oct 22, 6:04pm

Thu Oct 22, 5:04pm

Thu Oct 22, 4:05pm

Thu Oct 22, 3:04pm

Thu Oct 22, 2:05pm

Thu Oct 22, 1:04pm

Thu Oct 22, 12:04pm

Thu Oct 22, 11:04am

Thu Oct 22, 10:05am

Thu Oct 22, 9:04am

Thu Oct 22, 8:05am

Thu Oct 22, 7:04am

Thu Oct 22, 6:04am

Thu Oct 22, 5:04am

Thu Oct 22, 4:04am

Thu Oct 22, 3:04am

Thu Oct 22, 2:04am

Thu Oct 22, 1:04am

Thu Oct 22, 12:04am

Wed Oct 21, 11:05pm

Wed Oct 21, 10:04pm

Wed Oct 21, 9:04pm

Wed Oct 21, 8:04pm

Wed Oct 21, 7:04pm

Wed Oct 21, 6:04pm

Wed Oct 21, 5:05pm

Wed Oct 21, 4:04pm

Wed Oct 21, 3:04pm

Wed Oct 21, 2:05pm

Wed Oct 21, 1:04pm

Wed Oct 21, 12:04pm

Wed Oct 21, 11:04am

Wed Oct 21, 10:04am

Wed Oct 21, 9:04am

Wed Oct 21, 8:04am

Wed Oct 21, 7:04am

Wed Oct 21, 6:04am

Wed Oct 21, 5:04am

Wed Oct 21, 4:04am

Wed Oct 21, 3:04am

Wed Oct 21, 2:04am

Wed Oct 21, 1:04am

Wed Oct 21, 12:04am

Tue Oct 20, 11:05pm

Tue Oct 20, 10:04pm

Tue Oct 20, 9:04pm

Tue Oct 20, 8:05pm

Tue Oct 20, 7:04pm

Tue Oct 20, 6:04pm

Tue Oct 20, 5:05pm

Tue Oct 20, 4:04pm

Tue Oct 20, 3:05pm

Tue Oct 20, 2:07pm

Tue Oct 20, 1:04pm

Tue Oct 20, 12:04pm

Tue Oct 20, 11:04am

Tue Oct 20, 10:05am

Tue Oct 20, 9:04am

Tue Oct 20, 8:04am

Tue Oct 20, 7:04am

Tue Oct 20, 6:04am

Tue Oct 20, 5:04am

Tue Oct 20, 4:04am

Tue Oct 20, 3:04am

Tue Oct 20, 2:04am

Tue Oct 20, 1:04am

Tue Oct 20, 12:04am

Mon Oct 19, 11:04pm

Mon Oct 19, 10:04pm

Mon Oct 19, 9:04pm

Mon Oct 19, 8:04pm

Mon Oct 19, 7:04pm

Mon Oct 19, 6:04pm

Mon Oct 19, 5:04pm

Mon Oct 19, 4:04pm

Mon Oct 19, 3:04pm

Mon Oct 19, 2:04pm

Mon Oct 19, 1:05pm

Mon Oct 19, 12:04pm

Mon Oct 19, 11:04am

Mon Oct 19, 10:04am

Mon Oct 19, 9:04am

Mon Oct 19, 8:04am

Mon Oct 19, 7:04am

Mon Oct 19, 6:04am

Mon Oct 19, 5:04am

Mon Oct 19, 4:04am

Mon Oct 19, 3:04am

Mon Oct 19, 2:04am

Mon Oct 19, 1:04am

Mon Oct 19, 12:05am

Sun Oct 18, 11:04pm

Sun Oct 18, 10:04pm

Sun Oct 18, 9:04pm

Sun Oct 18, 8:04pm

Sun Oct 18, 7:05pm

Sun Oct 18, 6:04pm

Sun Oct 18, 5:05pm

Sun Oct 18, 4:05pm

Sun Oct 18, 3:04pm

Sun Oct 18, 2:05pm

Sun Oct 18, 1:04pm

Sun Oct 18, 12:04pm

Sun Oct 18, 11:04am

Sun Oct 18, 10:04am

Sun Oct 18, 9:04am

Sun Oct 18, 8:04am

Sun Oct 18, 7:04am

Sun Oct 18, 6:04am

Sun Oct 18, 5:04am

Sun Oct 18, 4:04am

Sun Oct 18, 3:04am

Sun Oct 18, 2:04am

Sun Oct 18, 1:04am

Sun Oct 18, 12:04am

Sat Oct 17, 11:05pm

Sat Oct 17, 10:04pm

Sat Oct 17, 9:04pm

Sat Oct 17, 8:04pm

Sat Oct 17, 7:04pm

Sat Oct 17, 6:04pm

Sat Oct 17, 5:05pm

Sat Oct 17, 4:04pm

Sat Oct 17, 3:04pm

Sat Oct 17, 2:05pm

Sat Oct 17, 1:05pm

Sat Oct 17, 12:04pm

Sat Oct 17, 11:05am

Sat Oct 17, 10:04am

Sat Oct 17, 9:04am

Sat Oct 17, 8:04am

Sat Oct 17, 7:04am

Sat Oct 17, 6:04am

Sat Oct 17, 5:04am

Sat Oct 17, 4:04am

Sat Oct 17, 3:04am

Sat Oct 17, 2:04am

Sat Oct 17, 1:05am

Sat Oct 17, 12:04am

Fri Oct 16, 11:05pm

Fri Oct 16, 9:05pm

Fri Oct 16, 8:04pm

Fri Oct 16, 7:05pm

Fri Oct 16, 6:04pm

Meta data:

ID: 13057e66-e3b2-499c-b0b1-226de7cf960e
Link: https://api.weather.gov/products/13057e66-e3b2-499c-b0b1-226de7cf960e